Overview Statistics Trail Chart Weather Telemetry Raw packets
 

This is the latest recevied weather packets stored in our database for station/object MB7UUE. If no packets are shown the sender has not sent any weather packets the latest 10 day(s).

<< 29 30 31 32 33 34 35 >>
Time Temp. Humidity Pressure Rain* Wind** Luminosity Snow
1788140487 16.67° C 82% 1004.4 hPa 0.25 mm - - -
1788139346 16.67° C 80% 1004.7 hPa 0.25 mm - - -
1788138207 16.67° C 80% 1004.9 hPa 0 mm - - -
1788137067 16.67° C 80% 1004.9 hPa 0 mm - - -
1788135928 16.67° C 79% 1005.2 hPa 0 mm - - -
1788134786 16.67° C 79% 1005.4 hPa 0 mm - - -
1788133647 17.22° C 78% 1005.5 hPa 0 mm - - -
1788132508 17.22° C 78% 1005.6 hPa 0 mm - - -
1788131366 17.22° C 78% 1005.8 hPa 0 mm - - -
1788130227 17.22° C 78% 1006 hPa 0 mm - - -
1788129086 17.22° C 78% 1006 hPa 0 mm - - -
1788127945 17.78° C 78% 1006.1 hPa 0 mm - - -
1788126806 18.33° C 79% 1006.1 hPa 0.25 mm - - -
1788125676 18.89° C 77% 1006 hPa 0.25 mm - - -
1788124527 19.44° C 75% 1006 hPa 0.25 mm - - -
1788123386 19.44° C 70% 1006.3 hPa 0 mm - - -
1788122246 19.44° C 69% 1006.4 hPa 0 mm - - -
1788121107 19.44° C 68% 1006.5 hPa 0 mm - - -
1788119966 19.44° C 66% 1006.6 hPa 0 mm - - -
1788118827 20° C 65% 1006.8 hPa 0 mm - - -
1788117687 20° C 63% 1006.8 hPa 0 mm - - -
1788116547 20° C 60% 1006.8 hPa 0 mm - - -
1788115406 20° C 60% 1006.7 hPa 0 mm - - -
1788114266 20.56° C 60% 1006.6 hPa 0 mm - - -
1788113125 20.56° C 61% 1006.8 hPa 0 mm - - -

* Rain latest hour (hover to see other rain measurements)
** Current wind speed in m/s (hover to see current wind gust speed)